[[{"header":{"parameterUnit":"m.s-1","parameterCategory":1,"la1":30.2991,"la2":30.254,"lo1":-89.0895,"lo2":-89.0444,"dy":0.0017,"dx":0.0017,"nx":28,"ny":28,"refTime":"2024-10-16T03:00:00:Z","depth":0,"parameterNumber":2,"parameterNumberName":"U-component_of_WINDS"},"data":[0,0,0,0,0,0,0,0,0,0,0,0,0,0,0,0,0,0,0,0,0,0,0,0,0,0,0,0,0,0,0,0,0,0,0,0,0,0,0,0,0,0,0,0,0,0,0,0,0,0,0,0,0,0,0,0,0,0,-3.9889,-3.989,0,-3.9948,-3.9949,-3.9949,-3.984,-3.9836,-3.9833,-3.9829,-3.9887,-3.9892,-3.9897,0,0,0,0,0,0,0,0,0,0,0,0,0,-3.9679,-3.9683,-3.9889,-3.989,-3.9891,-3.9948,-3.9949,-3.995,-3.9841,-3.9836,-3.9832,-3.9828,-3.9886,-3.9891,-3.9897,0,0,0,0,0,0,0,0,0,0,0,0,0,-3.9757,-3.9685,-3.9889,-3.9843,-3.984,-3.9948,-3.9949,-3.995,-3.9841,-3.9836,-3.9831,-3.9825,-3.9884,-3.9891,-3.9898,-4.0053,0,0,-3.9921,-3.9924,0,0,0,0,0,0,0,0,-3.9753,-3.9765,-3.9849,-3.9847,-3.9843,-3.9881,-3.9896,-3.9984,-3.9843,-3.9841,-3.9829,-3.9823,-3.9889,-3.9896,-3.9919,-4.0056,-4.0058,-3.9921,-3.9926,-3.9929,-3.9931,0,0,0,0,0,0,0,-3.9748,-3.9762,-3.9912,-3.9851,-3.9847,-3.9818,-3.9824,-3.9912,-3.9895,-3.9841,-3.9833,-3.9841,-3.9887,-3.9912,-3.9919,-4.0059,-3.9921,-3.9928,-3.9932,-3.9935,-4.0321,-4.0327,0,0,0,0,0,0,-3.9748,-3.9758,-3.991,-3.9914,-3.9784,-3.9827,-3.9832,-3.9874,-3.9894,-3.9891,-3.9846,-3.9836,-3.9902,-3.9911,-3.9921,-4.01,-3.9929,-3.9936,-3.994,-4.0316,-4.0323,-4.0329,0,0,0,0,0,0,-3.9744,-3.9763,-3.9908,-3.9834,-3.985,-3.9836,-3.9884,-3.9878,-3.9904,-3.9898,-3.9894,-3.9875,-3.9898,-3.9911,-4.002,-4.0101,-3.9939,-3.9946,-4.0309,-4.0318,-4.0326,-4.0462,0,0,0,0,0,0,-3.9739,-3.9762,-3.9822,-3.9836,-3.9855,-4.0008,-3.9889,-3.9883,-3.9917,-3.9905,-3.9924,-3.9922,-3.9895,-4.001,-4.0028,-4.0108,-3.9952,-4.0301,-4.0313,-4.0323,-4.0451,-4.0475,-4.0495,0,0,0,0,0,-3.9732,-3.9858,-3.9825,-3.9844,-3.9929,-4.0013,-4.0023,-3.999,-3.9924,-3.9983,-3.9979,-3.9922,-4.009,-4.0022,-4.0041,-4.0125,-4.0296,-4.031,-4.0322,-4.044,-4.047,-4.0495,0,0,0,0,0,0,-3.9853,-3.9859,-3.9823,-3.9959,-3.9986,-3.9994,-4.0067,-4.0023,-4.0069,-4.0055,-4.0011,-4.0016,-4.0134,-4.0141,-4.0065,-4.0274,-4.0182,-4.0199,-4.0265,-4.0293,-4.0315,-4.0309,-3.9958,0,0,0,0,0,-3.9896,-3.9965,-3.9966,-4.0085,-4.0101,-4.0082,-4.0117,-4.0089,-4.0115,-4.0126,-4.013,-4.0157,-4.0215,-4.0255,-4.0309,-4.0452,-4.0453,-4.0519,-4.0541,-4.056,-4.0575,-4.0647,-4.0676,-4.0372,-4.0372,-4.0372,0,0,-3.9985,-3.9997,-4.0042,-4.011,-4.0128,-4.0198,-4.0093,-4.0172,-4.0223,-4.0138,-4.0241,-4.0245,-4.0272,-4.0398,-4.0454,-4.0407,-4.0659,-4.0577,-4.0591,-4.0596,-4.0664,-4.0692,-4.0718,-4.0381,-4.0379,-4.0378,0,0,-4.0181,-4.0199,-4.0298,-4.0318,-4.0347,-4.0333,-4.0358,-4.0373,-4.0372,-4.0475,-4.0412,-4.0471,-4.0574,-4.0595,-4.0619,-4.0822,-4.077,-4.0841,-4.0957,-4.1028,-4.1052,-4.1073,-4.1142,-4.1168,-4.0856,-4.0857,-4.0857,0,-4.0288,-4.0392,-4.0355,-4.0438,-4.0468,-4.0395,-4.0494,-4.0516,-4.056,-4.0582,-4.053,-4.0655,-4.0669,-4.0797,-4.0846,-4.0869,-4.0893,-4.0837,-4.1052,-4.1073,-4.1091,-4.1157,-4.1183,-4.0865,-4.0864,-4.0863,-4.0862,0,-4.0519,-4.0592,-4.0669,-4.0713,-4.0753,-4.0844,-4.0819,-4.0863,-4.0831,-4.0823,-4.0927,-4.094,-4.0994,-4.1023,-4.0994,-4.1147,-4.1116,-4.106,-4.0965,-4.1129,-4.1189,-4.1215,-4.0877,-4.0874,-4.0871,-4.0869,0,0,-4.0793,-4.0816,-4.0844,-4.0862,-4.0888,-4.0943,-4.103,-4.1082,-4.1119,-4.1153,-4.1222,-4.131,-4.1256,-4.1284,-4.1256,-4.1319,-4.1475,-4.1253,-4.1253,-4.1291,-4.164,-4.1681,-4.1711,-4.1442,-4.1446,-4.145,-4.1637,0,-4.0985,-4.1135,-4.1104,-4.1249,-4.1314,-4.1246,-4.1321,-4.1344,-4.1339,-4.1392,-4.1385,-4.1447,-4.1373,-4.1389,-4.1449,-4.1443,-4.1544,-4.143,-4.1503,-4.1506,-4.1495,-4.1743,-4.1786,-4.1962,-4.1661,-4.1665,-4.1668,0,-4.123,-4.1271,-4.1424,-4.1436,-4.1462,-4.1531,-4.1575,-4.1628,-4.1652,-4.1643,-4.1674,-4.1633,-4.1716,-4.1624,-4.1737,-4.166,-4.1688,-4.169,-4.1696,-4.1699,-4.1595,-4.1749,-4.2018,-4.2043,-4.1705,-4.1702,-4.1699,0,-4.141,-4.1504,-4.1607,-4.1625,-4.1643,-4.1692,-4.1702,-4.1721,-4.1754,-4.1793,-4.1813,-4.1862,-4.1887,-4.1925,-4.1897,-4.1833,-4.2014,-4.192,-4.2007,-4.2007,-4.2045,-4.2043,-4.2319,-4.207,-4.207,-4.2069,-4.2068,0,-4.1626,-4.1721,-4.1687,-4.175,-4.1854,-4.1817,-4.192,-4.1922,-4.1939,-4.1999,-4.1944,-4.2001,-4.1963,-4.2017,-4.1997,-4.2091,-4.2104,-4.2098,-4.209,-4.2101,-4.2101,-4.2116,-4.2102,-4.2076,-4.2074,-4.2073,-4.2072,0,-4.1843,-4.1825,-4.1932,-4.194,-4.1945,-4.202,-4.2027,-4.2084,-4.2074,-4.2151,-4.2167,-4.2152,-4.2212,-4.2189,-4.2254,-4.224,-4.236,-4.2339,-4.2352,-4.2345,-4.2432,-4.2423,-4.2725,-4.2761,-4.2492,-4.2495,-4.2497,0,-4.198,-4.2052,-4.2068,-4.2104,-4.2118,-4.2178,-4.2211,-4.2178,-4.2214,-4.2246,-4.2298,-4.2354,-4.2397,-4.2496,-4.249,-4.2538,-4.2515,-4.2618,-4.2522,-4.2529,-4.2512,-4.2507,-4.2512,-4.2636,-4.2639,-4.2642,-4.2644,0,-4.2225,-4.2212,-4.2262,-4.2309,-4.235,-4.2386,-4.2416,-4.2449,-4.2416,-4.246,-4.2521,-4.2554,-4.262,-4.2674,-4.2718,-4.2726,-4.2679,-4.2675,-4.2696,-4.2706,-4.2709,-4.2705,-4.24,-4.2667,-4.2665,-4.2663,-4.2662,-4.2661,-4.2404,-4.2463,-4.2482,-4.2539,-4.2559,-4.2588,-4.2641,-4.2638,-4.2689,-4.2739,-4.2716,-4.2787,-4.2806,-4.2859,-4.2874,-4.2927,-4.2887,-4.292,-4.2927,-4.2935,-4.2944,-4.2704,-4.2935,-4.2935,-4.2934,-4.2933,-4.2933,0,-4.2642,-4.2651,-4.2704,-4.2748,-4.2792,-4.2746,-4.2776,-4.2816,-4.2878,-4.2901,-4.2944,-4.3013,-4.3066,-4.3064,-4.3112,-4.3155,-4.3134,-4.3168,-4.3163,-4.3165,-4.298,-4.2954,-4.3184,-4.3184,-4.3184,-4.3183,-4.3183,-4.3183,-4.2771,-4.2867,-4.2856,-4.296,-4.2969,-4.3037,-4.3058,-4.3084,-4.3101,-4.3181,-4.3224,-4.3223,-4.3235,-4.3284,-4.3329,-4.3327,-4.3345,-4.3387,-4.3377,-4.3203,-4.3178,-4.3154,-4.313,-4.3392,-4.3393,-4.3556,-4.3558,-4.3559]},{"header":{"parameterUnit":"m.s-1","parameterCategory":1,"la1":30.2991,"la2":30.254,"lo1":-89.0895,"lo2":-89.0444,"dy":0.0017,"dx":0.0017,"nx":28,"ny":28,"refTime":"2024-10-16T03:00:00:Z","depth":0,"parameterNumber":3,"parameterNumberName":"V-component_of_WINDS"},"data":[0,0,0,0,0,0,0,0,0,0,0,0,0,0,0,0,0,0,0,0,0,0,0,0,0,0,0,0,0,0,0,0,0,0,0,0,0,0,0,0,0,0,0,0,0,0,0,0,0,0,0,0,0,0,0,0,0,0,-3.1917,-3.1918,0,-3.197,-3.1971,-3.1971,-3.1937,-3.1936,-3.1934,-3.1933,-3.1985,-3.1988,-3.199,0,0,0,0,0,0,0,0,0,0,0,0,0,-3.1782,-3.1785,-3.1917,-3.1918,-3.1918,-3.197,-3.1971,-3.1972,-3.1938,-3.1936,-3.1934,-3.1932,-3.1984,-3.1987,-3.1991,0,0,0,0,0,0,0,0,0,0,0,0,0,-3.1839,-3.1786,-3.1917,-3.1908,-3.1908,-3.197,-3.1971,-3.1972,-3.1938,-3.1936,-3.1933,-3.1931,-3.1983,-3.1987,-3.1991,-3.2065,0,0,-3.2004,-3.2006,0,0,0,0,0,0,0,0,-3.1835,-3.1844,-3.1908,-3.1909,-3.1908,-3.1945,-3.1942,-3.2003,-3.1939,-3.1926,-3.1933,-3.193,-3.1973,-3.1978,-3.1993,-3.2067,-3.2069,-3.2004,-3.2007,-3.2009,-3.201,0,0,0,0,0,0,0,-3.1832,-3.1841,-3.1938,-3.1909,-3.1909,-3.19,-3.1905,-3.1954,-3.1962,-3.1927,-3.1925,-3.1932,-3.1973,-3.1989,-3.1994,-3.207,-3.2004,-3.2008,-3.2011,-3.2012,-3.2204,-3.2207,0,0,0,0,0,0,-3.1829,-3.1838,-3.1936,-3.194,-3.1865,-3.1904,-3.191,-3.1935,-3.1962,-3.1964,-3.1934,-3.193,-3.1983,-3.1989,-3.1996,-3.2082,-3.2009,-3.2013,-3.2015,-3.2202,-3.2205,-3.2208,0,0,0,0,0,0,-3.1826,-3.1838,-3.1934,-3.1888,-3.19,-3.1909,-3.1938,-3.1938,-3.1954,-3.1967,-3.1968,-3.1949,-3.1981,-3.199,-3.2047,-3.2083,-3.2015,-3.2019,-3.2199,-3.2203,-3.2206,-3.2256,0,0,0,0,0,0,-3.1822,-3.1837,-3.1866,-3.1889,-3.1902,-3.1986,-3.194,-3.1941,-3.1962,-3.1958,-3.1982,-3.1983,-3.198,-3.2041,-3.2052,-3.2088,-3.2022,-3.2196,-3.2201,-3.2205,-3.2251,-3.2261,-3.2269,0,0,0,0,0,-3.1818,-3.1878,-3.1868,-3.188,-3.1939,-3.1988,-3.1996,-3.1992,-3.1965,-3.1994,-3.2001,-3.1982,-3.2078,-3.2047,-3.2059,-3.2097,-3.2193,-3.2199,-3.2205,-3.2247,-3.2259,-3.2269,0,0,0,0,0,0,-3.1859,-3.1881,-3.187,-3.194,-3.1963,-3.1983,-3.2019,-3.2005,-3.2035,-3.203,-3.2023,-3.2028,-3.2088,-3.2098,-3.2064,-3.2168,-3.2131,-3.214,-3.2159,-3.2171,-3.218,-3.2176,-3.2026,0,0,0,0,0,-3.1876,-3.1916,-3.1932,-3.1992,-3.2004,-3.201,-3.2031,-3.2026,-3.2049,-3.2058,-3.207,-3.2092,-3.2126,-3.2149,-3.2182,-3.2253,-3.2256,-3.2284,-3.2294,-3.2301,-3.2308,-3.2343,-3.2356,-3.2226,-3.2226,-3.2226,0,0,-3.1912,-3.1929,-3.1954,-3.2001,-3.2018,-3.2057,-3.2018,-3.2062,-3.209,-3.2064,-3.2119,-3.2129,-3.2152,-3.2216,-3.2245,-3.2227,-3.2344,-3.2308,-3.2314,-3.2317,-3.2351,-3.2363,-3.2374,-3.223,-3.223,-3.2229,0,0,-3.1997,-3.2015,-3.2066,-3.2084,-3.211,-3.2113,-3.2125,-3.2147,-3.2152,-3.2207,-3.2188,-3.2221,-3.2282,-3.2299,-3.2316,-3.2406,-3.2389,-3.2417,-3.2464,-3.2499,-3.2509,-3.2518,-3.2548,-3.2559,-3.2424,-3.2424,-3.2424,0,-3.2039,-3.2098,-3.2094,-3.2138,-3.2158,-3.2137,-3.2188,-3.2205,-3.224,-3.2254,-3.2233,-3.2307,-3.2322,-3.2388,-3.241,-3.2425,-3.2437,-3.2413,-3.2508,-3.2517,-3.2525,-3.2554,-3.2565,-3.2427,-3.2426,-3.2426,-3.2426,0,-3.2146,-3.2188,-3.2225,-3.226,-3.2284,-3.2332,-3.2333,-3.2358,-3.2351,-3.2355,-3.241,-3.2427,-3.2462,-3.2478,-3.2471,-3.2543,-3.253,-3.2509,-3.2471,-3.2541,-3.2567,-3.2578,-3.2431,-3.243,-3.2429,-3.2428,0,0,-3.2259,-3.229,-3.2304,-3.2318,-3.2345,-3.2376,-3.2422,-3.2456,-3.2477,-3.2502,-3.2538,-3.2589,-3.2569,-3.2588,-3.2583,-3.2614,-3.2681,-3.2589,-3.2589,-3.2604,-3.2759,-3.2774,-3.2787,-3.2671,-3.2673,-3.2675,-3.2756,0,-3.2344,-3.2425,-3.2421,-3.2495,-3.2532,-3.2512,-3.2551,-3.2571,-3.2576,-3.2607,-3.2612,-3.2648,-3.262,-3.2631,-3.2661,-3.2667,-3.2712,-3.2661,-3.2703,-3.2705,-3.2696,-3.2801,-3.2817,-3.2893,-3.2767,-3.2769,-3.277,0,-3.2455,-3.2483,-3.2561,-3.258,-3.2596,-3.2631,-3.2661,-3.2692,-3.2713,-3.2715,-3.2735,-3.2725,-3.2769,-3.2731,-3.279,-3.2756,-3.2772,-3.2778,-3.2781,-3.2783,-3.2741,-3.2804,-3.2918,-3.2928,-3.2787,-3.2785,-3.2784,0,-3.2527,-3.2585,-3.2638,-3.2651,-3.2676,-3.2701,-3.2712,-3.2731,-3.2751,-3.2778,-3.279,-3.2821,-3.2838,-3.2861,-3.2859,-3.2832,-3.2918,-3.2881,-3.2919,-3.2919,-3.2937,-3.2936,-3.3053,-3.2951,-3.2951,-3.2951,-3.2951,0,-3.2621,-3.2669,-3.267,-3.2703,-3.2756,-3.2751,-3.2802,-3.2811,-3.2827,-3.286,-3.2845,-3.2876,-3.2871,-3.2902,-3.29,-3.2948,-3.2956,-3.2957,-3.2956,-3.2958,-3.2957,-3.2968,-3.2962,-3.2954,-3.2953,-3.2953,-3.2952,0,-3.271,-3.2713,-3.277,-3.2788,-3.2794,-3.2832,-3.2846,-3.2877,-3.288,-3.2922,-3.2931,-3.2936,-3.2971,-3.2971,-3.3011,-3.301,-3.3069,-3.3062,-3.3062,-3.306,-3.3097,-3.3093,-3.3224,-3.324,-3.3129,-3.313,-3.3131,0,-3.277,-3.2806,-3.2828,-3.2849,-3.2862,-3.2897,-3.2917,-3.2913,-3.2935,-3.2961,-3.2987,-3.3021,-3.3047,-3.3104,-3.311,-3.314,-3.3133,-3.3177,-3.3138,-3.3138,-3.3132,-3.3129,-3.3131,-3.3184,-3.3186,-3.3187,-3.3187,0,-3.2874,-3.2874,-3.2904,-3.2935,-3.296,-3.2984,-3.3006,-3.3024,-3.3022,-3.3047,-3.3083,-3.3103,-3.3144,-3.3177,-3.3205,-3.3215,-3.32,-3.32,-3.321,-3.3212,-3.3209,-3.3209,-3.3081,-3.3197,-3.3196,-3.3195,-3.3194,-3.3194,-3.2949,-3.298,-3.3,-3.3034,-3.305,-3.307,-3.3099,-3.3106,-3.3136,-3.3169,-3.3164,-3.3204,-3.3222,-3.3259,-3.3271,-3.3301,-3.3285,-3.3301,-3.3304,-3.3308,-3.3311,-3.3206,-3.3306,-3.3306,-3.3306,-3.3306,-3.3305,0,-3.3051,-3.3063,-3.3094,-3.3125,-3.3152,-3.3136,-3.3159,-3.3182,-3.3217,-3.3236,-3.3262,-3.3302,-3.3333,-3.3342,-3.3372,-3.3394,-3.3388,-3.3402,-3.3399,-3.3401,-3.3324,-3.3311,-3.3406,-3.3406,-3.3406,-3.3406,-3.3406,-3.3406,-3.3107,-3.3158,-3.3159,-3.3216,-3.3227,-3.3266,-3.328,-3.3298,-3.3313,-3.3358,-3.3384,-3.339,-3.3404,-3.3435,-3.3462,-3.3464,-3.3475,-3.3491,-3.349,-3.3417,-3.3407,-3.3397,-3.3385,-3.3494,-3.3494,-3.3565,-3.3566,-3.3566]}]]